Pittsburgh Allegheny Co., PA

11:14 PM EDT on October 15, 2019 (GMT -0400)
Allegheny County

Weather History for KAGC - July, 2019

Change the Weather History Date:

Sunday, July 21, 2019

  Actual Average Record
Temperature  
Mean Temperature 82 °F -  
Max Temperature 91 °F 84 °F 94 °F (1991)
Min Temperature 72 °F 63 °F 55 °F (1996)
Cooling Degree Days 16    
Growing Degree Days 32 (Base 50)    
Moisture  
Dew Point 72 °F    
Average Humidity 81    
Maximum Humidity 100    
Minimum Humidity 55    
Precipitation  
Precipitation 0.58 in - - ()
Sea Level Pressure  
Sea Level Pressure 29.93 in    
Wind  
Wind Speed 7 mph (West)    
Max Wind Speed 23 mph    
Max Gust Speed 38 mph    
Visibility 8 miles    
Events Rain , Thunderstorm    
Averages and records for this station are not official NWS values.
T = Trace of Precipitation, MM = Missing Value Source: NWS Daily Summary

Daily Weather History Graph

Daily Weather History Graph

Search for Another Location

Airport or City:

Astronomy

Jul. 21, 2019 Rise Set
Actual Time 6:07 AM EDT 8:44 PM EDT
Civil Twilight 5:35 AM EDT 9:16 PM EDT
Nautical Twilight 4:56 AM EDT 9:55 PM EDT
Astronomical Twilight 4:11 AM EDT 10:39 PM EDT
Moon 11:37 PM EDT (7/21) 10:26 AM EDT (7/21)
Length of Visible Light 15h 40m
Length of Day
14h 37m
Waning Gibbous, 80% of the Moon is Illuminated
Jul 21
Waning Gibbous
Jul 24
Last Quarter
Jul 31
New
Aug 7
First Quarter
Aug 15
Full

Hourly Weather History & Observations

Time (EDT) Temp. Heat Index Dew Point Humidity Pressure Visibility Wind Dir Wind Speed Gust Speed Precip Events Conditions
12:53 AM 79.0 °F - 73.9 °F 84% 29.91 in 10.0 mi South 8.1 mph - N/A   Clear
1:53 AM 78.1 °F - 73.0 °F 84% 29.92 in 10.0 mi SSW 8.1 mph - N/A   Clear
2:53 AM 78.1 °F - 73.0 °F 84% 29.90 in 10.0 mi SSW 8.1 mph - N/A   Clear
3:53 AM 77.0 °F - 72.0 °F 84% 29.90 in 10.0 mi SW 8.1 mph - N/A   Clear
4:53 AM 77.0 °F - 72.0 °F 84% 29.91 in 10.0 mi WSW 9.2 mph - N/A   Clear
5:53 AM 77.0 °F - 72.0 °F 84% 29.92 in 10.0 mi WSW 8.1 mph - N/A   Clear
6:53 AM 78.1 °F - 72.0 °F 81% 29.94 in 10.0 mi WSW 8.1 mph - N/A   Clear
7:53 AM 79.0 °F - 73.0 °F 82% 29.95 in 10.0 mi West 3.5 mph - N/A   Clear
8:53 AM 82.0 °F 87.9 °F 73.9 °F 76% 29.95 in 10.0 mi Variable 4.6 mph - N/A   Clear
9:53 AM 82.9 °F 89.4 °F 73.9 °F 74% 29.94 in 10.0 mi Variable 5.8 mph - N/A   Scattered Clouds
10:53 AM 86.0 °F 95.1 °F 75.0 °F 70% 29.94 in 10.0 mi Variable 4.6 mph - N/A   Scattered Clouds
11:32 AM 84.9 °F 93.3 °F 75.0 °F 72% 29.96 in 10.0 mi North - - N/A   Mostly Cloudy
11:53 AM 86.0 °F 93.8 °F 73.9 °F 67% 29.95 in 10.0 mi West 6.9 mph - N/A   Mostly Cloudy
12:53 PM 90.0 °F 99.0 °F 73.9 °F 59% 29.92 in 10.0 mi West 8.1 mph 16.1 mph N/A   Scattered Clouds
1:39 PM 91.0 °F 99.3 °F 73.0 °F 55% 29.93 in 10.0 mi WSW 10.4 mph - N/A Thunderstorm Thunderstorm
1:53 PM 91.0 °F 100.4 °F 73.9 °F 57% 29.91 in 10.0 mi NW 8.1 mph 19.6 mph N/A Thunderstorm Thunderstorm
2:05 PM 90.0 °F 96.9 °F 72.0 °F 55% 29.93 in 10.0 mi West 11.5 mph - N/A   Mostly Cloudy
2:29 PM 82.9 °F 88.0 °F 72.0 °F 69% 29.94 in 10.0 mi NNW 8.1 mph 19.6 mph N/A Thunderstorm Mostly Cloudy
2:44 PM 81.0 °F 84.9 °F 71.1 °F 72% 29.94 in 10.0 mi NNW 10.4 mph 24.2 mph N/A Thunderstorm Thunderstorm
2:53 PM 77.0 °F - 73.0 °F 88% 29.92 in 10.0 mi North - - 0.05 in Rain Rain
3:53 PM 80.1 °F 83.8 °F 72.0 °F 76% 29.92 in 10.0 mi WNW 4.6 mph - 0.01 in   Clear
4:53 PM 84.0 °F 91.2 °F 73.9 °F 72% 29.89 in 10.0 mi WNW 3.5 mph - N/A   Clear
5:53 PM 84.0 °F 90.2 °F 73.0 °F 69% 29.89 in 10.0 mi Variable 3.5 mph - N/A   Clear
6:53 PM 84.0 °F 91.2 °F 73.9 °F 72% 29.88 in 10.0 mi WNW 3.5 mph - N/A   Clear
7:53 PM 82.9 °F 88.8 °F 73.0 °F 72% 29.90 in 10.0 mi Calm Calm - N/A   Clear
8:53 PM 81.0 °F 84.9 °F 71.1 °F 72% 29.91 in 10.0 mi South 5.8 mph - N/A   Mostly Cloudy
9:01 PM 81.0 °F 84.9 °F 71.1 °F 72% 29.93 in 10.0 mi South 8.1 mph - N/A Thunderstorm Overcast
9:20 PM 77.0 °F - 70.0 °F 79% 29.94 in 10.0 mi South 20.7 mph 32.2 mph N/A Thunderstorm Thunderstorm
9:46 PM 72.0 °F - 70.0 °F 93% 29.94 in - South 23.0 mph 38.0 mph 0.20 in Rain , Thunderstorm Heavy Thunderstorms and Rain
9:53 PM 72.0 °F - 70.0 °F 93% 29.93 in 0.8 mi South 4.6 mph 34.5 mph 0.42 in Rain , Thunderstorm Heavy Thunderstorms and Rain
10:01 PM 72.0 °F - 71.1 °F 97% 29.97 in 1.8 mi WNW 5.8 mph - 0.00 in Rain , Thunderstorm Light Thunderstorms and Rain
10:08 PM 72.0 °F - 71.1 °F 97% 29.98 in 2.0 mi NW 12.7 mph 24.2 mph 0.05 in Rain , Thunderstorm Heavy Thunderstorms and Rain
10:21 PM 73.0 °F - 71.1 °F 93% 29.96 in 10.0 mi Calm Calm - 0.06 in Rain , Thunderstorm Light Rain
10:40 PM 72.0 °F - 71.1 °F 97% 29.95 in 6.0 mi Calm Calm - 0.10 in Rain Light Rain
10:53 PM 72.0 °F - 72.0 °F 100% 29.93 in 5.0 mi Calm Calm - 0.10 in   Partly Cloudy
11:06 PM 72.0 °F - 72.0 °F 100% 29.95 in 6.0 mi Calm Calm - N/A   Scattered Clouds
11:13 PM 72.0 °F - 71.1 °F 97% 29.94 in 1.8 mi Calm Calm - N/A   Scattered Clouds
11:19 PM 72.0 °F - 71.1 °F 97% 29.94 in 0.8 mi NNW 3.5 mph - N/A   Mist
11:29 PM 72.0 °F - 71.1 °F 97% 29.94 in 2.0 mi Calm Calm - N/A   Mostly Cloudy
11:37 PM 72.0 °F - 71.1 °F 97% 29.94 in 3.0 mi WNW 3.5 mph - N/A   Scattered Clouds
11:53 PM 72.0 °F - 69.1 °F 91% 29.91 in 10.0 mi West 4.6 mph - N/A   Clear